Weather History for Moffett NAS, CA

Change the Weather History Date:

Thursday, March 15, 2012

  Actual Average Record
Temperature  
Mean Temperature 62 °F 56 °F  
Max Temperature 66 °F 65 °F 83 °F (2004)
Min Temperature 58 °F 47 °F 36 °F (1948)
Degree Days  
Heating Degree Days 3    
Month to date heating degree days 151  
Since 1 July heating degree days 1555  
Cooling Degree Days 0    
Month to date cooling degree days 0  
Year to date cooling degree days 0  
Growing Degree Days 12 (Base 50)    
Moisture  
Dew Point 53 °F    
Average Humidity 72    
Maximum Humidity 80    
Minimum Humidity 63    
Precipitation  
Precipitation T in 0.07 in 1.30 in (1958)
Month to date precipitation 0.07 1.25  
Year to date precipitation 1.85 7.07  
Since 1 July precipitation 3.62 12.12  
Sea Level Pressure  
Sea Level Pressure 30.12 in    
Wind  
Wind Speed 7 mph (SSE)    
Max Wind Speed 14 mph    
Max Gust Speed 18 mph    
Visibility 10 miles    
Events Rain    
T = Trace of Precipitation, MM = Missing Value Source: NWS Daily Summary

Daily Weather History Graph

Daily Weather History Graph

Search for Another Location

Airport:

Trip Planner

Search our weather history database for the weather conditions in past years. The results will help you decide how hot, cold, wet, or windy it might be!

Date:

Astronomy

Mar. 15, 2012 Rise Set
Actual Time 7:18 AM PDT 7:16 PM PDT
Civil Twilight 6:52 AM PDT 7:42 PM PDT
Nautical Twilight 6:22 AM PDT 8:12 PM PDT
Astronomical Twilight 5:51 AM PDT 8:43 PM PDT
Moon 2:43 AM PDT (3/15) 12:45 PM PDT (3/15)
Length of Visible Light 12h 49m
Length of Day
11h 57m
Last Quarter, 42% of the Moon is Illuminated
Mar 15
Last Quarter
Mar 22
New
Mar 30
First Quarter
Apr 6
Full
Apr 13
Last Quarter

Hourly Weather History & Observations

Time (PDT) Temp. Dew Point Humidity Pressure Visibility Wind Dir Wind Speed Gust Speed Precip Events Conditions
12:08 AM 59.0 °F 51.8 °F 77% 30.14 in 10.0 mi SE 8.1 mph 17.3 mph N/A   Overcast
12:24 AM 57.2 °F 51.8 °F 82% 30.14 in 10.0 mi SE 9.2 mph - N/A   Overcast
12:43 AM 57.2 °F 51.8 °F 82% 30.14 in 10.0 mi SE 11.5 mph - N/A   Overcast
12:56 AM 57.9 °F 51.1 °F 78% 30.15 in 10.0 mi SE 6.9 mph - N/A   Overcast
1:56 AM 59.0 °F 50.0 °F 72% 30.15 in 10.0 mi SSE 9.2 mph 16.1 mph N/A   Overcast
2:56 AM 59.0 °F 51.1 °F 75% 30.15 in 10.0 mi SE 11.5 mph - N/A   Overcast
3:56 AM 59.0 °F 51.1 °F 75% 30.14 in 10.0 mi SE 9.2 mph - N/A   Overcast
4:56 AM 57.9 °F 51.1 °F 78% 30.13 in 10.0 mi SE 11.5 mph - N/A   Overcast
5:56 AM 59.0 °F 51.1 °F 75% 30.13 in 10.0 mi SE 9.2 mph - N/A   Overcast
6:56 AM 59.0 °F 51.1 °F 75% 30.12 in 10.0 mi SSE 10.4 mph - N/A   Overcast
7:56 AM 57.9 °F 51.1 °F 78% 30.14 in 10.0 mi SE 8.1 mph - N/A   Overcast
8:56 AM 59.0 °F 51.1 °F 75% 30.15 in 10.0 mi SE 9.2 mph - N/A   Mostly Cloudy
9:56 AM 62.1 °F 52.0 °F 70% 30.16 in 10.0 mi SSE 11.5 mph 16.1 mph N/A   Overcast
10:56 AM 62.1 °F 52.0 °F 70% 30.17 in 10.0 mi SE 9.2 mph - N/A   Overcast
11:39 AM 62.6 °F 51.8 °F 68% 30.15 in 10.0 mi SSE 6.9 mph - N/A   Overcast
11:56 AM 64.0 °F 52.0 °F 65% 30.15 in 10.0 mi South 5.8 mph - N/A   Overcast
12:56 PM 64.0 °F 53.1 °F 67% 30.14 in 10.0 mi SSE 6.9 mph - N/A   Overcast
1:56 PM 64.9 °F 53.1 °F 65% 30.12 in 10.0 mi SSE 9.2 mph - N/A   Overcast
2:06 PM 66.2 °F 53.6 °F 64% 30.11 in 10.0 mi South 10.4 mph - N/A   Overcast
2:56 PM 64.0 °F 53.1 °F 67% 30.12 in 10.0 mi SSE 6.9 mph - N/A   Overcast
3:56 PM 66.0 °F 54.0 °F 65% 30.11 in 10.0 mi ESE 5.8 mph - N/A   Overcast
4:56 PM 66.0 °F 53.1 °F 63% 30.11 in 10.0 mi WSW 5.8 mph - 0.00 in Rain Light Rain
5:18 PM 64.4 °F 55.4 °F 73% 30.10 in 7.0 mi West 5.8 mph - 0.00 in Rain Light Rain
5:43 PM 62.6 °F 55.4 °F 77% 30.10 in 10.0 mi West 6.9 mph - 0.00 in   Overcast
5:56 PM 61.0 °F 55.9 °F 83% 30.11 in 9.0 mi WNW 6.9 mph - 0.00 in Rain Light Rain
6:56 PM 61.0 °F 55.0 °F 81% 30.10 in 10.0 mi WSW 3.5 mph - 0.00 in   Overcast
7:56 PM 60.1 °F 54.0 °F 80% 30.09 in 10.0 mi WSW 3.5 mph - 0.00 in   Mostly Cloudy
8:56 PM 60.1 °F 53.1 °F 78% 30.08 in 10.0 mi SE 5.8 mph - N/A   Partly Cloudy
9:56 PM 59.0 °F 53.1 °F 81% 30.09 in 10.0 mi Calm Calm - N/A   Partly Cloudy
10:42 PM 59.0 °F 53.6 °F 82% 30.09 in 10.0 mi Calm Calm - N/A   Overcast
10:56 PM 59.0 °F 53.1 °F 81% 30.09 in 10.0 mi Calm Calm - N/A   Overcast
11:04 PM 59.0 °F 53.6 °F 82% 30.09 in 10.0 mi West 3.5 mph - N/A   Overcast
11:56 PM 59.0 °F 53.1 °F 81% 30.11 in 10.0 mi Calm Calm - N/A   Overcast